Theta_e
279 279 278 277 276 275 274 274 273 273 272 272 271 270 270 270 269 269 268 267 268 267 267 267 267 267 266 266 266 266 265 265 265 265 265 264 264 264 264 263 263 263 263 262 263 262 262 261 261 262 263 261 262 262 262 262 262 262 262 261 261 261 260 259 258 258 261 264 263 263 265 265 264 265 265 266 266 267 269 268 268 267 267 267 268
279 279 278 277 275 275 274 273 273 272 271 271 270 270 270 269 269 268 267 268 267 267 267 267 267 266 266 266 266 266 265 265 265 265 264 264 263 263 263 263 263 262 262 262 262 262 261 261 261 261 261 261 261 261 261 261 261 261 261 261 261 261 262 260 259 258 257 262 262 264 263 265 263 266 264 265 265 266 266 266 267 267 266 267 267
279 278 277 276 275 275 274 272 272 271 270 270 270 270 269 269 269 268 267 267 267 267 267 266 266 266 266 265 265 265 265 265 265 264 264 263 263 263 263 263 262 262 262 262 262 261 261 260 260 261 261 260 260 260 260 260 260 260 259 260 260 260 261 261 259 258 258 259 262 262 263 264 263 264 265 265 265 265 265 265 265 266 266 267 267
278 277 276 275 274 273 272 272 270 270 270 270 269 269 269 269 268 267 267 267 266 267 266 266 266 265 265 265 265 265 265 265 264 264 264 264 263 263 263 263 262 262 262 261 261 261 260 260 260 260 260 259 259 260 260 260 260 260 259 260 260 260 261 261 260 259 258 257 260 261 263 262 263 264 265 265 264 264 264 264 266 265 266 266 267
276 275 274 273 272 272 271 271 270 269 269 269 269 269 269 268 268 267 267 266 266 266 266 266 265 265 264 265 265 265 264 264 264 264 264 264 263 263 263 262 262 262 262 261 261 260 260 259 260 259 259 258 258 259 259 259 259 259 259 260 260 260 260 260 260 260 259 258 259 261 262 262 263 264 264 263 263 264 264 264 264 265 265 266 266
275 274 273 272 271 270 270 270 269 269 269 269 269 269 269 268 268 267 267 266 266 266 265 265 265 265 265 265 265 265 265 264 264 264 263 263 263 263 262 262 262 261 261 261 261 261 260 259 260 259 259 258 257 258 258 258 258 258 258 259 259 260 259 260 261 260 259 259 259 259 261 261 261 262 263 264 263 262 263 263 264 264 264 264 265
273 272 271 271 270 269 269 269 269 269 269 269 269 269 268 268 267 266 267 266 266 265 265 265 265 265 265 265 264 264 264 264 263 263 263 263 262 261 261 261 261 261 261 261 261 261 260 260 259 259 258 258 257 257 257 257 257 257 257 257 258 258 258 258 259 259 258 258 258 259 259 261 261 260 263 264 263 263 262 261 261 263 264 264 264
271 271 270 270 270 269 269 269 269 269 269 269 268 268 267 267 266 266 266 265 265 265 264 264 265 265 265 264 265 264 264 263 263 262 262 261 261 260 260 260 260 260 260 260 260 260 260 259 259 259 258 258 257 257 257 257 257 256 258 257 258 257 257 258 258 258 258 257 258 258 259 259 260 262 263 263 261 261 262 261 260 261 262 264 264
270 270 269 269 269 269 269 269 269 268 268 268 267 267 266 266 265 265 265 264 264 264 264 264 263 263 264 263 263 264 262 262 262 261 260 260 259 259 260 260 259 259 259 259 259 259 259 259 258 258 258 259 260 259 259 259 257 257 257 257 257 257 257 257 257 257 257 257 257 258 258 259 259 260 260 260 260 260 262 263 261 262 262 262 263
269 269 268 268 268 268 268 267 267 267 266 265 265 265 265 265 264 263 263 263 263 263 262 262 262 261 261 262 261 261 261 261 261 263 265 261 259 259 259 259 259 259 259 259 259 258 258 258 258 259 260 260 260 261 261 261 261 259 258 258 257 257 257 257 257 257 257 257 257 258 257 258 259 260 260 261 262 263 262 261 260 261 262 262 263
268 268 268 267 267 266 266 265 265 265 265 264 264 263 264 262 262 262 262 261 261 260 260 261 259 260 260 259 259 259 259 259 263 267 268 269 266 263 261 261 261 260 260 259 258 259 259 258 258 259 260 260 260 261 262 262 263 263 263 262 261 258 257 257 257 258 258 257 258 258 258 258 259 261 261 261 262 262 261 262 261 261 260 259 258
267 267 267 266 265 265 265 264 263 263 262 263 263 262 262 260 260 260 260 260 260 258 259 259 259 259 258 258 258 258 258 261 266 267 268 269 268 265 265 264 263 262 261 261 261 261 260 260 260 259 258 259 259 260 261 263 263 263 264 264 264 265 265 261 259 259 259 258 258 259 259 258 259 260 260 261 261 262 262 262 261 261 260 260 260
266 266 265 264 264 264 263 263 262 262 261 261 262 259 259 260 259 258 259 259 258 258 259 259 258 258 257 257 257 257 257 262 266 268 268 269 269 267 265 265 264 264 264 263 263 262 262 262 262 260 259 260 261 260 259 260 262 263 263 263 264 264 267 268 267 263 262 260 259 259 260 260 260 261 262 262 263 261 262 262 262 262 262 261 261
265 264 264 264 263 263 262 262 261 261 260 260 259 258 258 258 259 258 258 258 258 258 258 258 258 257 256 256 256 257 257 259 265 267 268 268 268 268 265 265 264 264 264 264 263 263 263 263 262 261 260 260 261 260 260 259 259 259 259 260 260 261 263 265 265 265 265 263 262 260 262 262 261 262 263 264 262 261 261 260 261 261 261 261 262
264 263 263 263 262 261 261 261 261 260 260 259 258 258 258 257 258 257 257 258 258 257 257 257 257 257 256 256 256 256 256 262 265 267 268 268 268 268 265 265 264 264 264 264 264 264 263 263 262 262 261 259 260 259 258 258 258 258 258 258 258 259 259 260 260 260 261 261 260 260 260 261 261 261 262 262 261 262 262 261 261 261 262 263 262
263 262 262 262 261 261 260 260 260 260 259 258 257 258 257 257 257 258 257 257 256 257 256 256 256 256 256 255 255 255 256 263 266 267 268 267 268 265 264 264 263 263 263 263 262 262 262 261 261 260 260 260 260 263 263 260 258 257 257 257 257 257 257 260 264 264 261 260 259 259 260 261 264 262 262 262 262 262 262 263 262 262 261 260 259
262 262 262 262 261 260 260 259 259 258 258 257 256 257 257 256 257 256 256 257 257 256 256 256 256 256 255 255 255 255 255 260 265 266 267 267 266 263 263 263 262 262 262 262 262 261 260 259 260 260 259 259 260 264 265 263 261 259 258 257 257 257 257 258 263 266 265 264 266 268 268 268 269 269 269 269 266 264 262 261 260 261 260 259 259
262 262 262 261 260 259 259 259 258 258 257 257 257 257 257 256 257 256 257 256 257 256 256 256 256 256 255 255 255 255 256 258 264 265 266 267 266 263 263 262 262 261 261 262 262 261 260 261 261 258 258 258 262 265 266 263 261 260 260 259 258 257 258 259 259 260 266 266 268 269 269 269 269 267 266 266 267 266 262 260 261 261 259 259 258
262 262 262 261 260 259 258 258 258 257 257 257 256 257 257 257 257 256 256 255 256 256 256 255 255 255 255 255 257 256 256 257 262 265 266 266 264 262 262 261 260 260 260 260 260 260 260 260 261 260 259 259 264 265 266 263 261 260 260 259 259 258 259 260 259 258 259 259 260 261 261 264 258 257 259 263 264 264 260 260 261 260 258 259 259
263 262 261 260 258 258 258 257 257 257 257 256 255 256 256 255 256 256 255 255 255 256 255 255 254 255 256 255 254 255 255 255 257 263 264 265 266 262 262 261 260 260 260 260 259 259 259 259 259 262 265 265 264 265 266 265 261 261 261 260 259 258 260 260 260 259 259 259 260 260 260 259 254 255 254 255 257 259 259 259 259 260 259 258 259
262 261 260 258 258 258 258 257 256 256 256 256 255 255 254 256 255 255 254 254 254 254 254 254 254 254 254 255 255 255 254 254 255 262 264 265 266 264 261 261 261 260 260 260 260 259 259 259 258 259 262 265 265 266 267 267 266 263 261 260 260 261 263 260 260 262 260 260 260 260 260 258 256 255 255 255 256 256 257 258 259 260 259 258 258
261 260 259 259 258 257 257 256 255 255 254 254 253 254 254 253 254 253 253 253 252 253 253 253 253 253 254 254 253 253 254 255 254 258 262 264 265 265 262 261 261 260 259 259 259 259 259 259 258 258 261 265 265 266 267 267 267 264 263 265 265 265 262 263 262 262 262 260 258 257 256 256 256 256 255 256 256 257 256 257 257 258 259 259 259
260 260 259 258 257 256 255 254 254 253 253 253 253 253 253 252 251 251 251 251 251 251 252 252 252 252 252 253 253 253 253 253 255 254 258 262 263 264 265 263 265 262 260 259 259 259 260 259 259 260 263 265 266 266 266 265 265 264 267 268 268 267 262 258 258 257 257 256 256 255 255 255 255 255 255 256 256 255 256 256 255 256 257 258 259
259 258 257 256 255 254 253 253 252 251 252 252 251 252 252 252 251 251 251 251 252 251 252 251 250 250 250 251 252 252 252 252 253 255 255 259 262 263 264 265 265 262 261 260 261 261 261 261 260 263 264 265 266 265 264 265 263 266 267 267 265 261 258 258 257 256 256 255 255 255 255 255 254 254 254 255 256 255 255 255 255 255 255 256 257
257 256 256 255 254 252 252 251 251 250 250 251 251 252 251 250 251 251 250 251 251 250 251 250 250 250 250 250 251 252 252 251 251 252 254 255 260 262 263 264 263 262 261 261 261 261 261 263 263 264 263 263 263 263 263 263 265 264 263 262 262 260 257 257 256 255 255 255 255 255 255 255 255 255 255 255 255 255 255 255 255 255 255 255 255
254 255 254 252 252 251 250 250 249 249 249 250 251 252 252 251 251 251 251 251 250 250 250 250 250 250 250 250 250 251 251 251 251 251 252 253 254 257 261 260 260 260 260 259 260 261 264 264 263 262 262 262 261 260 259 259 260 261 261 261 257 256 255 255 254 254 254 254 253 254 254 254 254 254 253 254 254 254 254 254 254 254 255 255 254
255 254 254 253 251 249 250 252 251 249 248 249 250 251 251 251 250 251 251 250 250 250 250 250 250 250 250 250 250 251 251 251 251 251 251 251 252 252 253 253 255 256 255 255 256 256 257 258 258 258 259 259 259 259 259 260 259 259 258 256 254 255 254 254 254 254 254 253 253 253 254 254 253 252 252 253 253 254 254 254 253 253 254 254 253
255 254 253 252 252 250 251 252 252 252 251 250 251 251 250 250 250 250 250 250 250 250 250 250 250 250 250 250 250 250 251 251 251 251 251 252 252 252 252 252 252 252 252 253 253 254 254 256 256 256 255 255 256 256 255 255 255 255 255 254 253 252 254 256 256 254 253 253 253 252 251 251 251 252 252 252 252 253 253 253 253 252 253 253 252
253 251 251 249 251 251 251 250 251 251 252 251 251 252 252 251 250 250 251 251 252 251 251 251 251 251 251 251 251 251 251 251 252 255 254 255 254 254 253 252 253 253 254 255 254 253 252 253 252 253 252 252 253 253 253 254 254 253 252 253 253 251 251 251 252 253 252 251 251 251 251 251 251 251 251 251 251 252 252 252 252 252 252 252 251
250 252 250 250 251 250 251 250 249 251 251 251 250 250 252 254 253 251 252 254 254 257 258 254 254 253 253 254 254 252 253 254 260 264 265 265 262 259 259 259 259 257 256 256 256 255 255 254 254 253 253 253 252 253 253 253 253 253 252 253 252 250 250 250 251 252 251 251 251 250 250 250 250 250 250 250 251 251 251 252 251 251 251 251 251
251 252 251 251 252 251 251 250 250 250 250 249 249 249 250 252 259 262 260 259 259 261 263 264 265 263 259 255 256 257 257 258 263 264 265 265 264 262 263 262 262 261 261 258 256 255 255 254 254 254 254 254 253 253 254 253 253 253 253 252 252 251 252 251 251 251 251 250 250 250 250 250 250 250 250 250 250 250 250 251 251 251 251 251 250
252 253 252 251 251 251 250 250 250 249 250 248 249 248 248 249 250 254 258 258 260 262 263 264 264 264 262 261 261 260 261 260 260 264 264 263 262 262 262 263 264 263 262 262 258 257 256 255 255 254 254 253 253 253 253 253 252 252 252 251 251 250 250 251 251 251 251 250 250 250 250 250 250 250 250 250 250 250 250 250 250 250 250 250 250
251 251 250 250 250 250 250 249 250 249 248 248 248 247 248 248 248 250 252 258 260 258 260 262 263 263 264 263 261 262 261 260 260 263 262 261 260 259 260 263 263 262 261 259 257 256 256 255 254 254 252 251 251 250 250 249 249 249 249 249 250 251 250 250 251 250 250 250 250 249 250 249 249 249 249 249 249 249 249 249 250 250 250 249 249
249 250 249 250 250 249 249 249 249 249 248 248 248 248 248 248 248 248 248 249 251 253 256 257 257 257 256 257 259 260 260 261 260 258 257 259 262 261 259 259 262 263 258 253 253 253 250 248 248 248 248 248 248 248 248 249 249 249 249 249 249 250 250 250 248 249 249 249 250 249 249 249 249 249 248 248 249 249 248 248 249 248 248 248 248
247 249 250 251 248 249 249 249 248 248 247 247 248 248 248 248 248 248 248 248 248 249 249 250 253 254 253 253 254 254 255 255 255 255 257 260 260 259 261 257 253 251 250 247 248 247 247 247 247 247 247 247 248 248 248 248 248 248 248 248 248 248 248 247 247 247 248 248 248 248 248 248 248 248 248 248 247 247 247 248 248 248 248 248 248
246 246 245 248 249 248 248 248 248 248 248 248 248 248 248 248 248 248 248 248 248 248 249 250 250 251 253 253 254 254 254 254 254 256 259 261 259 259 253 250 250 250 249 249 248 248 248 248 248 248 248 248 248 248 248 247 248 248 248 247 247 247 247 247 247 246 247 247 247 247 247 247 247 247 247 247 246 246 247 247 247 248 248 248 248
245 246 246 246 246 246 247 246 246 247 248 248 248 248 248 248 248 248 248 248 248 248 248 249 249 249 251 251 252 253 253 253 257 258 259 259 258 254 250 250 248 248 248 248 248 248 248 248 247 247 247 247 247 247 247 247 247 247 247 247 247 246 246 246 246 246 247 246 246 246 246 247 246 246 246 246 246 246 246 247 247 247 248 248 248
246 247 247 247 245 244 244 246 246 248 248 248 248 248 248 248 248 248 248 248 248 248 248 248 249 248 248 248 251 251 250 252 252 252 252 251 250 249 249 249 249 248 248 248 248 248 248 248 248 247 247 247 247 247 247 247 247 246 246 246 246 246 247 247 247 247 246 246 246 246 246 246 246 246 246 246 246 246 246 247 247 247 247 247 248
243 247 249 250 250 248 247 247 247 247 248 248 248 247 248 248 248 248 247 247 247 247 247 247 247 247 248 249 248 248 249 248 247 247 247 248 248 249 249 249 249 249 249 249 249 248 248 248 248 248 248 247 247 247 247 247 246 246 246 245 245 245 246 246 246 246 246 246 246 246 245 245 246 245 246 246 245 246 246 246 246 246 246 246 247
246 245 247 250 248 249 248 249 249 248 248 248 248 247 247 247 248 248 248 247 247 247 247 247 247 248 248 247 247 248 247 248 248 248 248 248 248 248 249 248 248 248 248 249 249 249 249 249 249 248 248 248 247 247 247 246 246 246 246 245 245 245 245 245 245 245 245 246 245 245 245 245 245 245 245 245 245 245 245 245 246 246 246 246 247
245 245 248 249 249 248 248 248 248 248 247 248 248 247 247 248 248 248 248 247 247 247 247 247 247 248 248 249 251 251 250 249 249 249 249 249 249 249 249 249 249 249 249 249 249 249 249 249 249 248 248 248 247 247 247 246 246 246 245 245 245 245 245 245 245 245 245 245 245 244 244 244 245 245 244 245 246 246 246 246 246 247 247 247 247
244 245 246 246 247 246 247 248 248 248 248 248 248 248 248 248 248 248 248 248 248 248 247 247 248 248 249 251 251 251 250 249 249 249 249 249 249 249 249 249 250 250 249 249 249 249 249 249 248 248 248 248 247 247 246 246 246 245 245 245 245 244 244 245 245 244 244 244 244 244 244 244 244 244 245 246 245 246 246 246 246 246 246 246 246
246 245 246 246 246 247 248 248 248 247 247 247 247 248 248 248 248 248 248 248 248 248 247 247 248 248 248 249 249 250 249 249 248 248 249 249 249 249 249 249 250 250 250 250 250 250 250 249 249 248 248 248 247 247 246 246 246 245 245 245 244 244 244 245 245 245 244 244 244 244 244 244 245 245 245 245 246 246 246 245 246 246 246 246 246
245 246 246 247 247 247 247 247 247 247 247 247 248 248 248 248 248 248 248 248 247 247 247 247 247 247 247 248 248 248 248 248 248 248 248 248 249 249 249 249 250 250 250 250 250 250 250 249 249 248 248 248 248 247 247 247 246 245 245 245 244 244 244 244 245 245 245 244 244 244 244 244 244 244 244 245 245 244 245 245 245 245 245 245 246
243 245 246 247 247 246 247 246 247 247 247 247 247 247 247 247 247 247 247 247 247 247 247 247 247 247 247 247 248 248 248 248 248 248 248 248 248 249 249 249 249 249 250 250 250 250 249 249 248 247 246 247 247 246 246 246 246 246 246 245 245 245 245 245 245 245 245 245 244 244 244 244 243 244 244 244 245 244 245 245 245 245 245 245 245
244 246 247 247 247 247 247 247 246 247 247 246 246 246 246 246 246 246 246 247 247 247 246 247 247 247 247 247 248 248 248 248 248 248 249 249 249 249 249 249 249 249 250 250 250 249 249 248 247 247 246 246 245 245 245 245 245 245 245 245 245 245 246 246 246 246 245 244 244 244 244 244 244 244 244 244 244 245 244 245 245 245 245 245 245
244 245 247 247 247 247 247 247 247 246 246 246 246 246 246 246 246 246 246 247 247 247 247 247 247 247 247 247 247 248 248 248 248 248 248 248 249 249 249 249 249 249 249 249 248 248 248 247 247 246 245 245 245 244 244 245 245 245 245 245 245 245 245 246 246 245 245 244 244 244 243 243 243 244 244 245 245 245 245 245 245 245 245 245 245
246 247 246 247 246 246 246 246 246 247 246 246 246 246 246 246 246 246 246 246 246 247 247 247 247 247 247 248 248 248 248 248 248 248 248 248 248 249 249 249 248 248 248 248 247 247 247 246 246 245 245 244 244 244 244 243 243 244 244 244 244 244 245 245 245 244 245 245 244 244 243 243 243 243 244 244 244 244 244 244 245 245 245 245 246
247 246 246 246 246 247 247 247 246 246 246 246 246 246 246 245 245 245 246 246 246 247 247 247 247 247 247 248 248 248 248 248 248 248 248 248 248 248 248 248 248 247 247 247 247 246 246 245 245 245 244 244 244 244 243 242 243 243 243 243 244 245 245 246 245 244 244 244 244 244 244 243 243 243 243 244 244 245 245 245 245 245 245 245 245
246 246 246 246 246 246 247 246 246 246 246 246 245 245 245 245 245 245 246 246 246 247 247 247 247 247 247 247 247 248 248 247 247 247 248 248 248 248 248 247 246 246 246 246 246 246 244 243 243 243 243 243 243 242 243 243 243 243 243 243 244 245 245 246 246 246 246 245 245 244 244 244 243 243 244 244 244 244 244 244 244 245 245 245 245
246 246 246 246 246 246 246 246 245 245 245 245 245 245 245 245 245 246 246 246 246 246 247 247 247 247 247 248 248 247 247 247 248 248 247 247 247 247 246 245 245 244 244 244 244 244 243 242 242 242 242 242 242 242 242 242 242 243 243 244 245 245 246 246 246 246 247 247 246 245 244 244 243 243 244 244 244 244 244 244 245 245 245 245 246
Wind_Speed
9 10 8 10 11 11 11 10 11 9 9 10 10 10 9 9 9 8 6 7 7 8 8 9 8 8 8 7 8 7 8 8 8 8 8 9 8 8 8 8 9 8 8 9 9 9 9 9 9 9 8 8 7 6 7 7 7 7 7 7 8 8 9 10 13 15 11 6 7 7 7 9 9 8 10 9 9 9 10 10 11 10 11 10 11
10 10 8 8 10 10 10 9 8 8 10 10 10 9 9 8 8 7 8 7 8 8 9 8 8 8 8 8 8 8 8 9 9 8 9 9 9 7 8 9 10 9 9 10 9 8 8 8 8 8 8 8 8 8 7 7 7 8 8 8 8 9 10 10 12 12 16 7 8 7 8 7 9 8 9 10 9 9 12 12 10 10 9 9 9
8 8 8 9 10 9 8 8 8 10 10 9 10 9 9 8 7 8 7 7 7 8 9 8 8 8 8 8 8 8 9 9 8 9 9 9 9 9 8 9 10 10 10 10 10 8 8 8 8 8 6 7 8 8 7 8 8 9 9 8 9 10 11 11 10 12 14 13 8 10 9 8 9 10 10 9 10 10 12 11 11 9 9 10 10
9 9 9 9 8 8 9 8 9 10 10 9 11 10 8 8 7 7 7 7 8 8 8 8 8 8 8 8 8 8 9 8 9 9 10 10 10 10 10 10 10 10 10 9 9 8 9 9 9 8 8 8 8 8 8 8 8 8 9 9 10 11 11 11 12 12 12 14 9 8 8 10 10 11 11 11 10 10 9 10 10 11 11 9 9
9 9 9 10 8 9 9 9 9 10 10 9 11 10 9 7 7 8 7 8 8 7 7 7 7 8 8 8 8 9 9 9 9 9 9 9 10 10 10 10 10 10 10 10 9 9 9 10 9 8 8 9 8 9 8 9 9 8 10 10 10 10 9 10 11 11 12 13 11 9 8 9 10 11 11 11 11 10 10 9 10 10 10 11 9
8 8 8 8 8 9 9 9 10 11 11 10 10 9 8 8 7 7 8 8 7 7 8 7 7 8 8 8 8 9 8 9 9 10 10 9 9 10 8 10 9 9 9 10 10 9 10 9 9 8 8 8 9 8 8 10 8 8 10 10 10 9 10 10 11 12 12 13 11 11 9 10 11 10 9 9 11 11 11 10 9 8 9 10 9
7 8 7 8 8 8 9 9 9 9 9 9 7 7 7 7 7 7 7 7 7 7 7 8 7 8 8 8 8 8 9 9 8 9 9 9 8 8 8 9 10 8 9 10 10 10 10 9 8 8 8 8 9 8 8 8 7 9 9 9 9 10 11 10 10 11 11 12 11 10 10 10 10 11 9 10 11 10 11 11 10 8 9 9 10
7 7 7 7 7 8 8 8 8 7 7 8 7 7 6 6 7 6 6 7 7 7 7 8 7 7 7 7 8 7 8 8 8 8 8 7 7 7 8 8 9 8 9 9 10 9 9 9 8 8 11 11 11 10 9 8 7 8 9 8 8 10 11 10 10 10 10 10 10 9 9 10 10 10 10 9 10 10 10 11 12 11 10 10 9
7 7 7 8 8 7 6 6 6 7 7 6 6 6 6 6 6 6 6 6 6 7 7 7 7 7 6 7 7 7 6 6 5 5 7 9 8 8 8 8 9 8 9 9 9 9 10 9 11 11 11 15 18 16 14 13 9 9 8 8 8 11 10 9 9 10 10 10 11 9 10 10 10 11 10 9 9 11 11 11 13 12 12 12 10
8 8 9 8 6 6 7 7 7 6 7 8 7 6 6 6 7 7 7 7 7 6 6 4 5 5 7 6 5 5 5 6 8 14 15 9 9 10 8 8 10 11 14 13 13 12 12 11 11 18 20 21 22 22 22 22 21 14 9 8 9 10 10 10 10 10 10 10 10 10 11 10 10 11 12 12 12 12 13 13 13 13 13 14 13
8 8 9 7 7 7 8 8 8 8 8 7 6 7 6 5 6 7 7 5 5 5 4 6 5 5 6 6 7 7 6 6 14 19 22 25 17 13 14 14 11 11 12 13 13 12 12 12 11 15 18 19 19 23 22 24 23 24 25 22 16 12 9 10 11 11 11 12 11 11 11 12 12 11 12 12 12 13 14 13 13 12 11 12 12
8 8 7 7 7 9 8 8 7 7 7 7 7 7 6 5 4 6 5 5 4 4 5 6 6 6 6 6 7 7 6 10 18 21 23 24 23 16 13 12 12 12 13 14 11 11 11 13 13 11 11 13 12 14 19 23 24 24 25 25 26 26 24 17 14 12 12 12 11 11 11 12 12 11 11 11 12 13 13 13 13 12 13 12 12
7 7 7 8 8 8 8 8 7 7 7 7 6 3 4 4 4 5 6 5 3 5 6 6 7 6 6 8 8 8 7 13 20 23 23 24 25 21 11 12 11 10 10 11 10 10 10 10 9 10 12 20 17 13 13 14 20 25 25 26 27 27 27 29 26 15 10 12 12 12 12 11 11 10 10 10 10 12 11 12 11 11 12 12 12
7 7 7 7 8 7 8 7 7 7 6 6 4 4 4 6 5 5 3 3 4 5 5 6 7 6 7 8 9 8 9 10 19 22 23 24 25 22 12 11 13 13 13 13 13 14 13 13 12 9 10 12 12 13 11 11 11 12 13 13 13 18 25 28 28 29 24 17 15 13 8 7 10 10 10 11 12 13 13 14 13 12 12 13 13
7 7 8 7 7 7 7 7 7 6 6 5 4 4 5 5 5 4 4 5 6 7 7 7 7 7 7 7 7 9 9 14 19 22 23 24 25 23 13 11 10 11 11 10 12 11 10 10 10 9 8 10 10 10 10 11 11 12 13 13 12 12 11 13 14 13 12 12 11 13 13 10 11 14 15 12 12 11 12 12 11 10 9 9 11
7 6 7 7 8 7 7 7 6 6 6 4 4 5 5 6 6 4 4 4 4 3 4 4 7 7 7 7 8 10 9 16 19 22 23 23 25 15 11 9 9 10 11 9 9 8 9 9 9 10 10 11 12 20 18 13 13 15 15 13 12 11 11 16 22 23 18 13 14 14 10 14 20 14 14 12 11 11 11 10 8 9 11 11 10
7 8 8 8 8 7 7 7 5 4 4 5 5 6 5 5 5 3 4 4 4 5 6 6 5 6 7 7 9 8 8 13 19 22 23 24 20 14 13 12 13 12 13 12 9 9 9 9 9 10 11 12 15 22 24 24 17 14 13 16 15 11 11 13 22 28 25 25 30 30 30 30 29 31 31 31 18 11 8 7 8 8 8 8 9
7 8 8 8 8 7 5 5 6 6 5 7 7 5 4 3 4 4 6 5 6 6 5 5 5 6 7 8 9 8 8 11 18 21 22 23 21 13 9 10 11 12 12 9 9 8 9 15 15 11 11 12 16 22 24 21 18 18 17 13 14 15 13 12 11 14 26 27 28 28 27 26 23 10 5 7 12 11 4 7 6 6 9 9 11
7 9 8 7 7 5 5 5 6 6 6 7 6 6 6 6 4 3 4 4 5 4 4 5 5 5 6 7 10 12 10 11 17 21 23 23 18 13 12 12 14 15 14 13 10 9 11 11 17 15 13 14 21 24 27 24 18 18 18 17 18 17 15 13 13 12 11 12 12 15 14 16 1 1 3 4 5 5 1 4 3 5 7 7 8
7 5 5 5 4 4 5 6 6 6 6 5 5 6 4 3 4 4 4 3 4 4 4 5 8 7 5 7 7 9 10 11 11 21 22 23 23 15 11 10 12 13 14 13 15 12 10 10 13 22 26 24 25 26 26 27 20 17 16 15 15 18 14 13 14 12 14 14 14 12 12 7 2 2 1 2 3 2 3 4 5 5 6 7 7
5 6 5 3 5 6 5 5 6 5 5 5 5 4 3 5 4 4 5 4 4 5 7 7 8 8 6 7 9 9 9 11 13 21 22 23 24 21 11 11 10 11 9 12 12 12 10 8 7 14 22 24 25 27 27 27 25 17 15 14 13 16 18 15 18 24 15 14 14 13 8 4 2 1 2 2 3 3 3 4 5 6 7 7 8
5 4 6 6 5 4 5 4 4 5 4 4 4 5 4 4 4 4 4 4 6 8 7 5 6 7 8 8 8 9 8 13 12 17 22 23 23 25 15 12 13 11 14 15 14 14 14 9 8 13 20 24 26 27 28 26 28 19 15 20 25 27 22 15 12 11 12 6 4 3 3 2 1 1 2 2 3 4 4 3 5 6 7 8 9
4 4 4 4 4 5 4 4 5 3 4 5 5 6 4 4 5 4 5 5 7 9 8 7 7 8 8 7 6 8 9 9 16 14 19 22 24 23 25 19 22 16 9 8 11 11 11 11 11 16 22 25 26 26 26 28 23 16 24 24 27 20 3 5 4 3 3 3 2 2 2 1 2 3 2 3 3 3 4 4 5 6 7 9 10
3 4 4 4 4 4 4 4 4 3 4 4 4 5 5 5 4 4 5 5 5 7 6 5 6 8 9 9 6 6 6 6 9 16 16 22 22 24 23 23 24 14 11 10 14 14 13 12 11 19 23 25 26 25 26 25 17 23 25 23 12 8 3 2 4 3 2 3 3 3 4 3 3 3 4 4 3 3 4 4 5 7 7 7 8
4 4 4 4 4 3 3 3 3 3 4 4 5 5 5 4 5 4 4 5 5 6 7 5 6 7 7 9 8 6 5 6 6 9 18 20 23 23 23 23 22 21 15 12 8 7 8 12 15 18 20 23 23 23 22 21 22 17 14 11 13 2 3 4 2 3 4 4 5 5 4 5 5 4 3 3 3 3 3 5 4 4 5 7 8
4 6 4 4 5 3 3 3 3 4 4 4 5 5 5 5 5 4 4 5 5 7 7 5 6 6 7 9 9 8 5 5 6 6 8 14 16 19 23 23 21 21 19 14 17 21 23 24 24 22 20 18 12 8 6 7 11 16 17 15 4 2 3 4 4 4 5 5 5 6 5 4 4 4 3 3 3 5 3 5 6 8 6 7 9
5 4 5 5 3 3 4 4 4 3 3 4 4 4 4 4 4 5 5 6 6 6 6 6 6 6 7 9 8 7 7 5 6 6 7 7 7 9 10 11 17 18 13 9 11 10 12 12 10 14 13 16 17 17 16 14 12 10 6 4 2 3 4 4 5 6 5 5 5 5 4 4 1 1 3 4 6 5 3 7 7 9 9 9 10
5 5 5 4 4 3 5 5 5 4 4 4 4 4 4 5 6 8 7 7 7 8 7 8 7 7 8 8 7 7 10 8 7 8 8 7 7 7 7 8 8 7 7 7 8 8 7 9 12 7 5 6 7 5 4 3 4 5 4 3 3 3 5 8 7 5 4 3 3 1 2 2 3 4 3 4 5 5 4 7 7 9 8 7 9
4 4 4 2 5 3 4 4 5 4 4 4 5 5 6 5 7 8 8 6 7 8 7 8 9 8 8 9 9 9 11 11 11 12 14 13 12 10 9 10 9 8 12 14 10 7 4 6 6 7 6 7 6 6 6 6 6 7 8 6 5 5 4 3 5 5 5 3 5 5 6 3 6 3 5 6 8 7 3 7 8 8 8 7 10
4 5 4 4 4 4 4 4 4 5 5 5 5 6 7 11 10 9 10 12 18 20 17 13 12 9 12 13 11 11 13 12 17 22 23 23 23 24 22 21 20 16 14 19 15 11 11 9 8 8 7 8 9 8 8 6 6 6 6 7 6 5 6 5 5 6 4 5 4 4 5 4 5 4 6 7 7 6 6 8 7 7 8 8 9
5 5 4 4 5 5 4 4 4 5 4 4 4 6 8 7 13 18 18 15 15 19 21 24 25 22 14 11 13 23 26 26 27 25 25 24 23 21 21 19 21 24 25 16 11 9 9 8 9 9 9 9 9 10 9 7 6 6 5 5 5 7 6 7 7 5 5 4 5 5 4 5 5 5 7 8 7 7 6 7 7 8 8 9 10
5 5 4 5 5 5 4 4 4 4 4 3 4 4 5 9 10 9 14 16 18 19 20 21 22 22 19 18 14 9 13 18 22 23 24 23 22 21 19 20 20 20 17 16 10 8 8 9 9 9 10 11 12 9 10 8 7 7 7 6 5 5 7 8 6 5 5 5 5 7 8 8 8 7 7 6 6 7 7 7 7 7 7 8 9
6 5 5 5 4 5 4 4 4 5 5 5 5 4 5 5 7 11 6 10 15 17 19 19 20 21 21 18 17 18 18 19 22 23 23 22 21 20 21 23 24 23 23 15 12 11 10 9 10 9 6 6 6 4 5 5 5 5 6 6 7 5 5 6 6 6 5 6 5 5 5 7 6 5 5 6 6 7 7 7 7 7 7 8 10
5 5 4 5 5 5 5 5 5 5 4 5 5 5 5 6 7 7 8 11 8 9 11 14 16 18 17 18 18 19 19 21 21 21 22 22 22 21 20 16 21 21 6 1 3 6 3 2 2 3 3 2 2 2 3 4 4 5 5 6 6 5 7 4 4 6 6 7 7 6 4 6 6 5 6 5 6 6 6 7 7 7 7 8 9
4 5 7 6 4 5 5 4 5 5 4 5 5 5 6 6 5 6 6 7 8 11 9 5 8 12 12 13 15 18 18 19 19 19 21 22 21 20 20 12 9 4 3 2 0 0 0 2 2 2 2 3 3 4 4 5 4 4 5 5 4 4 4 4 5 4 5 5 5 4 4 5 5 5 6 5 4 5 6 5 6 6 7 7 8
4 4 4 5 5 5 5 5 5 5 5 6 5 5 6 5 5 5 6 6 8 8 9 10 7 6 13 16 17 17 17 17 17 19 20 20 20 18 6 3 4 5 3 5 4 4 4 4 4 4 4 4 4 4 5 5 5 5 4 4 5 5 4 5 5 5 5 5 5 5 5 5 5 5 4 4 6 7 5 5 6 6 7 8 8
4 5 4 4 5 4 5 5 5 5 5 6 5 5 5 5 5 5 6 6 6 6 8 10 10 9 8 6 8 13 16 17 19 21 21 19 19 12 4 6 4 5 4 6 6 7 5 5 5 5 5 5 5 5 4 5 4 4 5 5 5 5 5 5 5 5 6 5 5 5 5 5 5 5 5 6 5 5 5 5 6 7 8 9 10
5 6 6 5 4 4 4 6 5 6 6 5 5 5 6 6 6 5 6 6 7 8 9 9 7 7 8 8 6 6 9 14 17 15 13 12 9 5 5 6 6 5 6 5 6 6 6 6 5 6 5 5 5 4 5 4 4 4 4 5 5 5 8 7 9 7 6 5 5 5 4 4 4 4 5 6 5 4 5 6 6 6 6 8 9
4 6 8 8 5 5 5 5 5 5 5 5 5 5 7 6 6 6 6 6 7 7 7 8 7 7 7 5 5 5 8 6 4 6 6 5 5 6 6 6 6 7 7 7 6 6 6 6 6 5 5 5 5 5 5 5 4 4 4 4 5 4 5 5 5 6 5 5 5 4 4 4 4 4 4 5 5 5 5 5 6 6 6 7 7
6 4 5 6 6 6 6 6 5 5 6 5 6 5 5 6 6 6 6 6 8 8 6 7 9 8 7 4 5 5 7 7 6 5 5 5 4 5 5 6 6 7 6 6 7 6 6 6 6 5 5 5 5 5 5 5 5 5 4 4 5 5 6 5 5 5 5 5 4 4 4 5 4 4 4 4 5 4 5 6 6 6 6 7 8
5 5 5 5 6 5 5 6 6 6 5 6 5 6 6 6 6 6 6 7 8 8 8 9 9 8 6 8 14 14 10 9 8 7 6 6 7 6 5 6 6 6 7 7 6 7 6 5 5 5 5 5 5 5 5 5 4 4 5 5 5 5 5 5 5 5 5 5 4 4 4 4 4 4 5 5 6 6 6 6 6 7 7 7 8
5 5 5 5 5 4 5 6 6 6 5 6 6 5 6 6 6 6 6 7 8 8 9 9 8 7 8 15 15 17 12 9 8 9 9 9 9 8 8 8 8 8 8 8 7 6 5 5 5 5 5 5 5 5 4 4 5 5 5 5 5 5 5 5 5 5 5 5 5 5 4 4 4 5 6 6 5 5 5 6 6 6 6 7 8
5 4 5 6 5 5 6 6 5 5 5 5 6 5 5 6 6 6 6 7 7 7 7 8 8 7 8 10 12 14 9 7 6 8 8 8 8 8 8 8 8 8 8 8 7 7 6 6 5 4 5 5 5 5 5 5 5 5 5 5 5 5 5 5 5 5 5 5 5 5 5 5 6 5 4 5 5 5 5 5 5 5 6 7 7
4 5 6 6 6 5 6 5 6 6 6 6 7 6 6 6 5 6 6 7 8 7 7 7 6 7 8 7 7 7 6 7 7 8 8 8 8 8 8 8 8 8 7 7 6 7 6 5 4 4 4 4 4 4 4 4 4 5 5 5 4 5 5 5 5 5 5 5 5 5 4 4 5 5 5 6 4 4 4 5 5 5 6 7 8
5 5 5 6 5 5 6 4 5 6 7 6 6 6 6 6 6 6 6 6 6 7 7 6 6 6 6 6 5 6 6 6 8 8 7 8 8 9 8 8 8 8 8 7 6 6 4 4 4 4 4 3 4 4 4 3 3 4 4 5 4 5 5 5 6 5 5 5 4 4 4 4 5 5 5 4 4 4 5 5 5 6 7 8 8
4 5 6 6 7 7 6 6 6 5 6 6 7 7 6 6 6 6 6 6 6 6 7 6 5 6 6 6 6 6 7 8 8 8 8 8 8 9 8 8 8 8 7 7 6 5 4 4 3 3 4 4 4 3 3 3 3 3 4 3 4 5 4 4 3 4 4 5 4 4 4 4 4 4 5 4 4 5 5 6 6 6 7 8 9
4 5 6 6 6 7 7 7 6 6 6 6 6 6 7 6 6 6 7 7 7 7 6 6 5 6 6 6 6 6 7 7 7 7 8 8 9 8 8 8 8 7 5 4 4 4 4 4 3 4 4 4 4 4 3 3 3 3 3 3 3 4 3 3 3 4 4 4 4 3 4 4 5 4 6 7 6 6 6 6 6 7 7 8 9
5 6 5 6 5 6 7 6 6 7 6 7 6 7 7 7 6 6 6 6 6 6 6 6 6 6 6 6 7 8 8 7 7 8 9 8 8 8 8 7 5 4 4 4 4 4 4 3 4 4 4 4 4 4 4 4 3 3 3 3 3 3 5 6 4 4 3 4 4 4 4 5 4 5 5 6 6 5 6 6 6 6 7 8 9
5 6 6 5 6 6 6 6 7 6 7 6 7 7 7 6 6 6 6 5 6 6 5 6 6 6 5 6 6 6 7 7 7 8 8 7 7 6 6 5 5 4 3 3 4 5 4 4 4 3 4 4 4 4 3 4 3 4 3 3 5 9 9 10 6 4 6 4 4 4 4 5 5 5 6 6 6 6 6 6 5 6 7 8 9
5 5 5 6 6 6 6 6 6 6 7 6 6 7 7 7 6 6 5 5 5 5 5 5 6 6 6 6 6 5 5 6 6 6 7 7 5 4 4 4 3 4 3 4 5 5 4 2 3 3 4 3 3 3 3 3 3 3 3 4 7 9 9 10 10 9 7 4 5 5 5 5 5 5 5 6 6 6 6 5 6 7 8 9 9
6 6 6 6 6 6 6 6 6 6 6 6 6 6 7 7 7 6 5 5 5 5 5 5 5 6 5 5 5 5 5 6 7 5 4 4 4 3 3 4 5 4 5 5 5 5 4 3 3 3 3 3 3 3 3 3 3 3 5 7 8 8 9 8 6 7 10 7 4 5 5 5 5 5 5 5 5 5 6 7 7 8 8 8 9
Wind_Direction
199 207 192 203 201 200 199 193 199 193 190 189 189 189 188 184 187 188 170 191 187 192 198 200 198 198 197 201 205 208 209 211 209 210 216 219 221 221 224 226 234 239 242 242 236 237 241 245 246 246 247 249 249 246 245 242 243 248 248 248 249 244 243 245 255 271 277 258 271 282 288 294 292 282 288 294 299 303 305 307 308 307 305 304 303
204 204 196 196 199 203 198 193 189 183 187 187 190 185 186 188 183 172 185 193 185 197 200 199 197 197 198 205 208 208 212 213 209 210 215 219 221 217 221 228 233 239 239 244 237 236 239 242 244 244 243 243 244 246 245 244 244 248 246 242 247 247 237 243 254 264 279 279 283 286 287 283 286 292 293 297 300 305 306 303 302 300 300 301 302
202 199 193 192 199 198 188 186 182 185 184 188 190 185 186 183 177 183 189 192 193 198 200 197 197 195 202 206 207 210 211 214 212 210 216 215 222 221 222 226 233 238 240 240 237 234 239 241 243 241 236 242 240 242 240 243 243 244 244 243 246 247 246 241 252 263 272 279 284 290 288 287 288 295 296 294 295 297 295 297 298 300 298 297 294
189 185 192 196 190 184 188 181 179 183 189 187 189 185 182 179 176 186 191 190 194 202 198 199 195 197 204 207 209 210 214 214 216 215 216 219 223 227 225 227 230 236 238 238 236 236 236 240 242 240 238 240 240 241 240 238 241 243 244 246 245 246 249 245 244 256 269 280 282 277 288 292 290 291 293 293 291 289 286 288 293 292 290 293 294
178 185 184 186 181 186 186 179 183 187 190 187 187 180 179 177 176 187 189 197 199 194 198 195 200 201 204 209 209 213 214 214 218 219 219 219 224 227 227 228 231 234 234 235 234 233 234 237 237 233 234 241 238 239 240 238 237 239 247 246 243 244 245 245 247 250 262 268 280 279 283 281 284 288 293 295 292 292 292 288 288 288 294 294 294
179 174 179 182 184 187 185 183 189 191 189 186 183 179 176 176 183 191 193 200 197 198 195 195 197 209 207 212 213 216 216 217 219 221 221 219 223 226 226 229 231 229 231 234 234 232 233 232 235 230 227 226 233 233 233 237 234 237 240 245 246 246 245 247 249 253 258 265 272 283 276 281 285 281 287 287 293 296 297 293 287 287 290 293 288
170 176 177 186 184 188 186 191 189 188 187 185 172 173 180 185 187 196 195 198 196 198 200 202 207 208 216 212 216 217 221 220 219 221 221 220 219 222 226 230 229 229 230 232 231 232 233 232 228 227 229 226 229 225 228 230 228 233 231 233 237 245 247 246 249 255 257 265 269 268 276 273 275 282 284 283 284 288 294 297 290 284 286 287 291
173 180 179 189 190 190 191 185 181 180 174 173 174 175 179 186 194 197 187 196 199 201 198 203 208 207 215 215 219 217 220 222 222 219 219 222 222 219 227 227 230 230 232 229 231 229 229 230 227 227 231 232 230 230 224 228 224 230 230 228 232 238 243 245 248 250 253 256 260 266 264 271 273 271 278 281 284 282 281 285 290 296 292 287 288
175 181 183 191 196 187 176 171 171 163 163 162 168 178 184 191 189 189 192 199 200 201 205 204 206 215 217 216 222 220 218 221 214 213 223 228 222 226 226 227 230 232 234 233 228 231 235 232 234 232 228 231 230 228 224 223 219 228 226 219 227 237 237 243 242 244 250 252 258 260 263 263 265 275 276 268 266 280 290 286 283 288 289 288 286
176 184 192 195 181 166 159 153 160 157 152 163 171 173 180 184 182 192 198 198 197 197 198 211 205 210 218 222 221 217 227 226 226 228 232 221 221 231 230 229 237 240 247 246 245 239 235 233 231 231 231 233 233 233 233 232 229 225 223 214 218 229 231 235 237 239 247 249 247 253 257 255 261 267 271 271 275 280 280 277 278 283 286 285 286
190 186 196 179 158 148 149 156 150 160 162 162 169 171 189 184 189 199 198 194 201 197 197 211 216 212 217 219 226 225 226 222 234 247 258 258 250 232 234 243 236 233 237 241 242 237 238 232 230 230 232 233 235 235 235 236 241 243 241 235 225 217 222 227 229 232 239 244 245 245 248 255 256 261 266 275 274 272 273 277 275 279 277 283 289
185 190 178 154 157 156 156 147 161 165 156 176 174 188 182 184 198 199 197 197 205 191 209 221 223 225 223 228 230 232 230 234 246 258 261 259 257 254 247 240 236 229 229 238 233 230 226 231 232 223 222 225 226 233 235 239 245 248 249 249 248 241 231 225 227 230 228 239 242 235 236 244 252 248 257 264 270 268 266 267 266 267 270 272 276
178 174 163 160 162 156 154 160 164 166 181 180 180 171 190 199 205 199 208 207 191 207 219 220 229 224 223 228 236 236 238 242 254 262 263 263 262 261 255 252 250 240 227 230 229 223 224 225 228 215 217 220 223 224 226 235 243 248 252 255 254 254 256 255 248 238 223 232 233 233 221 237 246 248 248 252 251 263 268 266 266 266 265 269 273
173 171 159 166 160 159 157 162 172 182 173 171 176 188 194 212 210 204 200 191 206 221 223 228 231 228 223 229 237 240 242 241 252 263 265 265 266 268 263 258 256 256 256 255 252 255 247 247 246 233 216 215 218 220 220 227 232 242 248 250 250 253 255 256 260 264 266 267 269 269 255 257 265 269 259 254 259 261 263 263 264 265 263 262 270
173 167 168 160 158 158 162 167 179 178 173 171 177 201 206 213 208 202 195 203 211 215 221 230 234 229 231 230 238 245 241 243 252 262 265 266 267 268 268 262 257 253 248 244 247 243 239 240 242 242 225 216 220 217 224 233 236 240 243 243 244 245 242 246 251 254 256 256 257 259 262 249 251 254 255 249 248 247 247 253 258 264 276 285 284
173 159 172 176 174 169 166 173 184 178 177 180 194 206 206 208 215 202 195 218 226 230 243 222 239 237 231 229 237 250 249 249 257 264 266 267 269 272 267 259 259 259 260 258 254 254 250 244 241 231 224 222 218 229 234 233 233 240 244 244 247 246 241 246 247 246 243 240 245 247 242 243 242 237 241 240 237 242 251 255 261 265 266 267 268
183 185 190 178 180 172 172 172 187 193 186 193 206 212 208 217 219 184 212 218 223 224 231 228 224 233 236 232 239 250 253 253 259 266 269 270 273 272 271 270 268 266 264 258 251 248 239 227 228 231 228 231 224 235 249 249 247 237 227 237 243 238 243 245 251 252 251 247 244 242 240 241 243 243 242 242 238 233 236 240 243 244 248 256 267
190 189 197 188 184 176 178 178 188 197 190 203 212 210 216 219 213 187 202 217 228 228 228 238 231 229 236 237 235 246 252 253 258 265 268 269 269 265 254 254 251 256 258 251 256 256 246 235 232 229 232 235 230 240 247 247 249 253 254 240 225 233 237 238 244 251 257 263 266 267 266 264 268 283 316 308 295 294 167 235 247 263 265 269 273
192 198 202 180 178 177 178 184 192 194 200 212 208 216 212 210 199 187 209 214 232 231 235 241 243 235 230 236 242 247 255 258 259 266 269 271 272 271 270 268 268 267 269 266 254 251 252 244 240 234 228 226 232 243 248 250 250 250 250 249 247 244 243 237 239 243 246 251 258 264 274 279 332 156 257 254 252 267 201 228 234 238 251 257 265
206 192 173 172 175 178 179 188 196 193 210 215 210 218 216 210 209 206 213 204 231 235 238 241 248 247 235 235 238 245 254 260 256 262 268 269 270 268 263 254 254 257 257 258 263 255 240 240 233 239 250 245 242 245 249 248 245 244 245 244 240 245 244 240 236 234 239 239 246 250 253 245 164 153 182 268 255 242 226 219 226 234 245 254 256
173 179 164 170 180 186 185 188 197 208 205 212 210 214 198 210 213 211 223 224 233 248 242 243 250 255 243 246 252 249 243 256 261 264 268 271 271 270 264 259 258 258 256 257 255 255 251 238 235 233 244 254 258 259 260 261 258 246 232 237 232 238 237 233 235 233 233 231 232 235 234 234 200 171 189 202 242 228 224 231 234 235 242 248 251
165 161 176 183 188 191 192 203 197 207 207 190 204 226 222 206 216 220 225 225 240 250 250 243 250 258 258 253 248 253 245 245 261 267 269 271 272 269 266 259 258 253 257 260 259 259 254 242 234 228 230 247 256 258 258 258 257 258 249 235 235 234 239 240 233 226 233 227 204 160 171 193 216 237 243 222 224 231 212 214 223 236 241 244 247
172 173 180 191 195 197 200 198 209 193 207 199 204 230 218 209 228 217 223 236 242 252 252 251 255 262 267 255 246 250 253 250 254 261 268 271 272 272 268 266 262 260 248 232 232 240 241 241 236 224 229 244 253 256 256 254 256 262 265 266 269 281 332 89 96 110 112 133 154 178 191 196 216 232 237 248 240 230 234 217 216 226 241 244 249
164 185 194 202 202 209 210 213 208 202 205 198 205 222 230 222 223 209 211 220 237 247 245 241 242 259 264 270 254 241 241 246 251 255 261 267 272 272 271 268 266 260 251 247 256 256 257 249 237 228 236 247 252 251 249 252 250 254 263 275 301 107 138 109 124 156 159 165 193 204 216 209 214 227 230 231 243 233 243 238 233 234 238 247 247
182 201 212 210 213 223 214 214 210 212 214 191 216 223 237 208 229 225 208 225 230 241 254 231 240 253 262 263 270 260 241 236 244 249 256 263 269 272 273 271 271 270 268 268 269 268 264 256 243 240 241 243 248 257 264 273 282 291 294 293 285 255 142 176 189 160 205 204 218 231 227 225 215 221 215 222 234 237 250 254 241 247 255 261 260
198 223 220 218 227 211 228 251 233 229 225 210 219 224 223 214 221 220 201 224 222 234 247 240 244 246 252 262 264 271 262 242 245 250 249 260 265 268 272 276 278 277 276 276 275 273 271 271 274 278 278 277 281 280 274 269 274 277 280 281 273 195 169 169 192 193 203 211 210 219 220 215 221 219 218 227 230 236 233 258 267 265 257 265 274
220 230 225 231 234 195 219 246 250 237 223 228 223 225 217 211 223 234 220 224 232 234 244 245 247 245 250 259 266 267 265 251 248 243 242 245 244 253 263 266 265 266 268 266 267 262 261 260 258 259 259 264 265 263 262 260 261 264 265 267 224 188 196 195 190 211 205 212 222 218 223 219 212 190 216 215 232 233 217 248 253 261 263 267 268
225 236 235 225 236 213 225 237 237 244 229 211 224 228 217 209 218 223 216 217 224 239 238 241 238 239 248 254 259 264 265 260 244 239 242 235 239 240 240 241 242 236 248 252 242 242 244 255 259 261 264 268 263 263 261 253 245 245 243 231 221 209 218 226 230 223 236 222 226 213 203 194 214 216 216 223 234 232 220 239 245 259 259 263 264
239 253 251 243 251 231 227 234 238 243 252 235 239 227 232 219 222 241 233 222 223 237 252 249 244 236 238 247 243 251 260 258 250 239 239 232 233 244 239 230 233 234 234 235 242 237 234 247 243 245 234 237 235 236 235 238 235 235 241 236 232 223 224 210 230 222 214 200 210 206 224 199 230 212 228 234 238 238 208 240 246 254 263 253 254
251 256 242 240 252 245 247 245 241 240 245 255 265 275 237 237 228 222 260 236 233 238 238 240 240 236 247 247 231 230 249 254 263 265 267 264 252 234 232 234 236 237 236 235 234 245 244 245 237 241 239 234 236 236 238 225 227 223 217 228 226 208 221 226 223 234 206 214 215 199 219 204 225 215 227 233 243 241 232 237 251 246 251 251 254
252 261 249 249 240 240 239 250 243 237 244 246 251 269 296 271 261 259 259 262 255 249 258 263 266 261 249 239 242 238 243 252 263 271 277 277 277 283 282 271 254 245 238 235 231 229 234 229 233 232 234 236 234 236 236 228 216 217 215 203 219 222 218 225 224 216 219 212 215 213 210 217 222 219 232 231 235 243 245 248 252 252 247 252 259
245 253 242 249 248 244 238 242 249 246 252 238 242 258 271 292 290 248 255 265 264 269 273 276 279 284 288 287 288 283 267 261 257 267 278 281 285 290 298 300 298 292 290 281 270 241 228 234 231 232 231 231 236 235 238 238 235 230 235 230 225 212 225 229 217 208 215 214 215 224 223 224 232 230 230 230 233 243 246 252 246 244 247 250 255
242 259 254 256 251 249 247 246 251 244 257 256 255 238 253 262 278 302 272 262 275 280 279 278 281 286 292 299 307 302 297 294 292 288 291 303 310 306 295 286 282 282 281 274 259 261 256 251 247 248 231 219 225 210 225 220 228 227 229 228 237 227 219 229 230 225 215 220 216 219 217 225 223 223 219 227 229 242 243 245 245 245 253 259 261
240 249 258 254 257 257 247 249 251 253 244 247 251 251 246 243 263 267 297 309 291 265 263 275 285 290 290 291 292 295 296 296 299 303 302 298 293 290 288 281 277 279 316 333 299 273 282 206 209 189 209 221 217 216 224 221 217 224 226 227 229 236 244 233 209 228 228 227 225 221 209 224 216 219 228 225 232 237 242 244 246 246 246 248 258
254 259 258 255 242 250 252 249 248 254 251 247 249 249 251 248 243 262 269 278 290 297 306 277 262 267 278 286 287 287 289 291 291 292 292 289 289 291 289 288 294 329 11 22 350 304 180 240 219 227 206 215 218 213 227 227 231 234 238 242 241 238 235 221 230 220 226 225 224 215 210 214 210 213 217 217 218 228 232 235 236 239 247 253 257
254 256 263 258 256 252 249 248 244 245 248 251 247 247 251 250 254 258 260 260 271 282 289 287 283 269 275 277 280 286 289 291 290 286 284 286 285 288 301 1 302 297 298 283 262 250 237 238 237 238 227 228 229 227 225 230 225 229 228 229 239 235 226 228 225 222 221 221 220 215 213 214 212 215 213 225 225 229 231 230 242 243 245 250 257
252 257 261 252 243 245 248 246 247 244 248 254 255 258 254 255 255 258 259 263 266 265 270 289 301 295 273 254 274 284 288 291 294 296 297 299 306 319 303 284 268 271 247 266 263 264 245 234 221 237 222 230 221 222 219 223 219 214 222 224 223 230 230 223 224 218 222 216 218 213 216 216 207 211 210 222 225 222 230 236 238 243 245 253 261
251 253 257 257 254 248 252 250 250 248 252 256 252 255 266 264 261 256 261 267 266 271 281 284 283 280 292 291 294 288 288 288 291 291 294 296 293 279 274 267 266 252 253 239 237 241 247 248 227 224 223 218 223 213 216 217 215 213 213 221 226 225 236 238 239 228 215 222 219 212 214 220 213 215 216 220 225 227 229 237 239 243 250 258 263
257 250 254 260 253 246 242 252 255 251 257 253 255 258 264 268 267 263 263 261 268 271 269 275 272 276 276 291 297 285 290 287 276 267 269 256 251 250 249 254 248 257 256 255 241 233 239 241 238 228 230 226 222 218 210 217 207 216 214 216 224 228 236 238 229 226 220 216 218 213 213 221 216 214 215 221 225 224 232 233 239 241 250 255 254
272 273 269 261 263 260 256 256 263 262 263 269 268 255 261 262 262 266 267 269 273 273 268 271 276 276 284 292 282 283 274 272 267 258 255 256 243 240 243 247 249 248 253 253 251 246 239 239 235 229 225 223 219 216 210 207 211 215 210 214 212 222 223 224 231 225 223 215 216 211 212 219 219 213 216 223 228 224 227 232 234 242 246 254 262
269 270 273 269 260 267 266 263 266 264 269 262 264 267 263 263 265 264 265 268 270 274 274 274 275 279 282 280 287 292 289 287 288 286 286 287 287 279 262 255 251 254 254 255 252 249 239 235 230 227 227 219 215 209 207 205 206 210 211 212 211 221 224 224 222 224 225 220 215 216 215 218 217 213 221 221 229 231 228 233 241 245 251 257 267
276 278 277 273 272 271 273 273 266 263 264 272 271 264 264 266 264 263 265 268 270 272 277 279 278 284 281 288 294 297 295 289 290 288 286 282 281 279 278 275 273 271 272 268 265 252 241 238 230 227 224 217 204 209 200 205 203 207 210 211 216 215 221 225 220 217 214 218 213 214 217 215 216 221 229 232 226 230 235 235 243 246 253 261 264
277 271 270 276 272 265 270 274 280 282 277 267 265 255 254 259 263 261 266 266 269 270 274 280 287 288 287 289 291 293 285 276 272 275 278 279 278 278 276 274 274 271 267 266 264 265 257 245 234 222 218 214 206 198 198 202 200 204 205 211 211 215 220 225 225 219 213 216 218 217 215 221 232 233 226 229 233 227 228 236 243 250 256 262 268
280 282 280 275 274 277 269 272 280 272 270 267 265 267 267 265 265 267 267 274 275 277 274 278 282 287 288 288 285 278 269 272 273 275 274 276 274 274 275 277 277 275 271 268 265 264 258 245 241 229 215 213 206 198 197 201 190 194 197 202 207 214 217 222 222 220 213 213 215 216 219 219 227 231 236 236 222 226 236 238 243 249 257 261 262
281 284 284 286 279 275 279 266 266 274 277 277 277 270 265 266 269 269 268 269 273 276 278 278 279 279 281 280 275 271 271 270 275 277 278 280 280 281 283 283 283 281 279 274 270 260 242 243 231 225 218 215 207 201 201 194 193 195 194 193 198 213 218 216 216 216 210 209 215 216 220 218 226 229 231 229 228 230 239 238 242 253 259 263 269
280 281 284 285 289 285 281 282 272 270 273 276 279 281 275 265 262 265 266 268 269 275 278 275 271 271 274 277 276 275 280 282 280 281 283 286 290 292 291 289 286 281 280 279 275 258 246 236 228 217 213 218 207 206 206 199 198 198 195 193 204 218 225 226 218 203 201 204 209 210 218 224 227 223 230 230 233 241 239 245 244 248 253 263 268
286 280 279 281 281 284 284 284 288 281 275 272 268 271 277 275 271 268 266 268 273 273 275 275 276 276 276 274 275 278 281 281 285 286 285 286 288 290 292 289 287 284 280 272 266 262 252 240 218 209 215 215 205 203 205 204 199 198 197 196 206 219 227 226 208 204 201 199 201 197 209 219 229 229 240 245 245 239 241 241 240 251 255 265 271
284 283 279 278 279 283 283 285 280 279 279 276 276 275 276 279 279 277 279 279 276 274 275 274 274 275 276 276 280 284 286 286 288 292 295 294 293 292 291 288 282 278 276 277 278 267 252 232 222 214 215 210 199 201 202 204 200 197 197 206 201 211 220 219 208 207 206 199 194 202 204 215 226 229 234 236 242 247 249 250 251 255 264 269 270
285 284 285 283 278 277 281 285 284 285 283 287 286 282 282 279 278 277 276 273 272 272 271 275 278 275 275 279 282 282 287 291 293 296 297 295 292 288 288 284 284 290 295 290 281 273 258 235 221 210 211 207 205 200 202 194 202 199 205 204 216 221 226 226 217 207 207 202 198 206 213 216 222 229 235 241 245 244 246 248 251 262 269 270 272
285 282 279 283 280 280 277 273 275 278 282 280 280 284 285 283 282 280 276 273 271 273 276 278 278 280 281 284 284 285 288 288 290 292 293 293 290 282 287 301 314 302 293 288 284 274 257 237 222 217 211 205 202 204 203 209 209 213 214 214 220 223 227 230 230 224 218 199 204 204 207 217 217 226 233 239 242 243 244 250 257 264 266 269 268
287 285 281 276 279 281 283 284 282 277 274 274 276 276 282 283 283 282 279 280 278 280 280 281 280 283 283 280 283 289 291 293 291 290 286 287 298 321 326 314 307 303 299 290 285 271 257 234 213 210 198 200 196 204 203 209 216 211 218 226 232 232 231 231 231 236 239 238 204 202 208 216 222 227 235 235 233 231 244 255 259 259 263 264 269